TimeHST,TemperatureF,Dew PointF,Humidity,Sea Level PressureIn,VisibilityMPH,Wind Direction,Wind SpeedMPH,Gust SpeedMPH,PrecipitationIn,Events,Conditions,WindDirDegrees,DateUTC
12:54 AM,64.9,64.9,100,30.01,10.0,Calm,Calm,-,N/A,,Clear,0,2013-10-22 10:54:00
1:54 AM,69.1,68.0,96,29.99,10.0,North,5.8,-,N/A,,Clear,360,2013-10-22 11:54:00
2:54 AM,69.1,66.9,93,29.99,10.0,North,4.6,-,N/A,,Clear,360,2013-10-22 12:54:00
3:54 AM,71.1,69.1,93,29.97,10.0,North,3.5,-,0.00,,Partly Cloudy,10,2013-10-22 13:54:00
4:54 AM,71.1,68.0,90,29.97,10.0,NNE,5.8,-,N/A,,Partly Cloudy,20,2013-10-22 14:54:00
5:54 AM,72.0,68.0,87,29.99,10.0,NNE,5.8,-,N/A,,Overcast,30,2013-10-22 15:54:00
6:54 AM,71.1,70.0,96,30.01,9.0,NE,8.1,-,0.00,,Overcast,40,2013-10-22 16:54:00
7:12 AM,71.6,69.8,94,30.00,8.0,NE,4.6,-,N/A,,Overcast,50,2013-10-22 17:12:00
7:23 AM,71.6,71.6,100,30.00,10.0,Variable,3.5,-,N/A,,Overcast,0,2013-10-22 17:23:00
7:54 AM,73.0,70.0,90,30.01,10.0,NNE,3.5,-,N/A,,Mostly Cloudy,20,2013-10-22 17:54:00
8:54 AM,79.0,68.0,69,30.01,10.0,NNE,8.1,-,N/A,,Scattered Clouds,30,2013-10-22 18:54:00
9:54 AM,80.1,69.1,69,30.02,10.0,North,11.5,-,N/A,,Partly Cloudy,360,2013-10-22 19:54:00
10:54 AM,80.1,69.1,69,30.02,10.0,NE,8.1,19.6,N/A,,Scattered Clouds,40,2013-10-22 20:54:00
11:54 AM,80.1,69.1,69,29.99,10.0,NNE,11.5,18.4,N/A,,Clear,30,2013-10-22 21:54:00
12:54 PM,80.1,69.1,69,29.97,10.0,NE,11.5,21.9,N/A,,Mostly Cloudy,40,2013-10-22 22:54:00
1:54 PM,82.0,70.0,67,29.95,10.0,North,12.7,24.2,N/A,,Clear,10,2013-10-22 23:54:00
2:54 PM,80.1,69.1,69,29.95,10.0,NNE,12.7,23.0,N/A,,Clear,30,2013-10-23 00:54:00
3:54 PM,78.1,70.0,76,29.94,10.0,NNE,13.8,24.2,N/A,,Clear,30,2013-10-23 01:54:00
4:54 PM,77.0,70.0,79,29.95,10.0,NNE,12.7,21.9,N/A,,Clear,20,2013-10-23 02:54:00
5:54 PM,75.9,70.0,82,29.96,10.0,NNE,11.5,-,N/A,,Partly Cloudy,30,2013-10-23 03:54:00
6:54 PM,75.0,69.1,82,29.98,10.0,NNE,11.5,20.7,N/A,,Clear,30,2013-10-23 04:54:00
7:54 PM,75.0,69.1,82,30.00,10.0,NNE,12.7,19.6,N/A,,Clear,30,2013-10-23 05:54:00
8:54 PM,73.9,69.1,85,30.01,10.0,NNE,9.2,17.3,N/A,,Clear,30,2013-10-23 06:54:00
9:54 PM,73.9,69.1,85,30.01,10.0,NNE,6.9,-,N/A,,Clear,30,2013-10-23 07:54:00
10:54 PM,73.9,69.1,85,30.01,10.0,NE,8.1,-,N/A,,Mostly Cloudy,40,2013-10-23 08:54:00
11:54 PM,73.0,68.0,84,30.01,10.0,NNE,5.8,-,N/A,,Clear,20,2013-10-23 09:54:00